TimeCST,TemperatureF,Dew PointF,Humidity,Sea Level PressureIn,VisibilityMPH,Wind Direction,Wind SpeedMPH,Gust SpeedMPH,PrecipitationIn,Events,Conditions,WindDirDegrees,DateUTC
12:15 AM,10.9,3.4,72,30.68,10.0,WNW,5.8,-,N/A,,Clear,300,2013-11-24 06:15:00
12:35 AM,10.4,3.7,74,30.68,10.0,WNW,6.9,-,N/A,,Clear,300,2013-11-24 06:35:00
12:55 AM,10.2,3.2,73,30.68,10.0,NW,6.9,-,N/A,,Clear,320,2013-11-24 06:55:00
1:15 AM,-9999,-9999,N/A,30.68,10.0,NW,3.5,-,N/A,,Clear,320,2013-11-24 07:15:00
1:35 AM,-9999,-9999,N/A,30.67,10.0,NW,4.6,-,N/A,,Clear,320,2013-11-24 07:35:00
1:55 AM,-9999,-9999,N/A,30.67,10.0,NNW,4.6,-,N/A,,Clear,330,2013-11-24 07:55:00
2:15 AM,-9999,-9999,N/A,30.67,10.0,NW,4.6,-,N/A,,Clear,320,2013-11-24 08:15:00
2:35 AM,-9999,-9999,N/A,30.67,10.0,NNW,4.6,-,N/A,,Clear,340,2013-11-24 08:35:00
2:55 AM,-9999,-9999,N/A,30.67,10.0,WNW,5.8,-,N/A,,Clear,300,2013-11-24 08:55:00
3:15 AM,-9999,-9999,N/A,-9999,10.0,WNW,6.9,-,N/A,,Clear,300,2013-11-24 09:15:00
3:35 AM,-9999,-9999,N/A,-9999,10.0,NW,3.5,-,N/A,,Clear,320,2013-11-24 09:35:00
3:55 AM,-9999,-9999,N/A,-9999,10.0,Calm,Calm,-,N/A,,Unknown,0,2013-11-24 09:55:00
4:15 AM,-9999,-9999,N/A,-9999,10.0,NW,5.8,-,N/A,,Clear,310,2013-11-24 10:15:00
5:35 AM,-9999,-9999,N/A,-9999,10.0,North,-9999.0,-,N/A,,Unknown,0,2013-11-24 11:35:00
5:55 AM,-9999,-9999,N/A,-9999,10.0,North,-9999.0,-,N/A,,Unknown,0,2013-11-24 11:55:00
6:15 AM,-9999,-9999,N/A,-9999,10.0,North,-9999.0,-,N/A,,Unknown,0,2013-11-24 12:15:00
6:35 AM,-9999,-9999,N/A,-9999,10.0,WNW,6.9,-,N/A,,Unknown,290,2013-11-24 12:35:00
6:55 AM,-9999,-9999,N/A,-9999,10.0,West,6.9,-,N/A,,Unknown,280,2013-11-24 12:55:00
7:15 AM,-9999,-9999,N/A,-9999,10.0,North,-9999.0,-,N/A,,Unknown,0,2013-11-24 13:15:00
7:55 AM,-9999,-9999,N/A,30.69,10.0,WNW,5.8,-,N/A,,Clear,300,2013-11-24 13:55:00
8:15 AM,-9999,-9999,N/A,30.69,10.0,West,6.9,-,N/A,,Clear,280,2013-11-24 14:15:00
8:35 AM,-9999,-9999,N/A,-9999,10.0,North,-9999.0,-,N/A,,Unknown,0,2013-11-24 14:35:00
8:55 AM,14.0,5.9,70,30.70,10.0,West,8.1,-,N/A,,Unknown,270,2013-11-24 14:55:00
9:15 AM,14.7,5.7,68,30.70,10.0,West,9.2,-,N/A,,Clear,260,2013-11-24 15:15:00
9:35 AM,16.0,5.5,63,30.69,10.0,West,9.2,-,N/A,,Clear,260,2013-11-24 15:35:00
9:55 AM,16.3,5.0,61,30.69,10.0,WSW,9.2,-,N/A,,Clear,240,2013-11-24 15:55:00
10:15 AM,18.0,4.8,57,30.68,10.0,WSW,5.8,-,N/A,,Clear,240,2013-11-24 16:15:00
10:35 AM,18.1,5.2,57,30.68,10.0,SW,6.9,-,N/A,,Clear,230,2013-11-24 16:35:00
10:55 AM,19.0,5.0,54,30.66,10.0,SW,8.1,-,N/A,,Clear,230,2013-11-24 16:55:00
11:15 AM,19.6,4.6,52,30.65,10.0,SW,6.9,-,N/A,,Clear,230,2013-11-24 17:15:00
11:35 AM,20.8,3.9,48,30.63,10.0,West,9.2,-,N/A,,Clear,270,2013-11-24 17:35:00
11:55 AM,20.8,4.1,49,30.61,10.0,WSW,10.4,-,N/A,,Clear,240,2013-11-24 17:55:00
12:15 PM,22.1,4.8,48,30.59,10.0,WSW,10.4,-,N/A,,Clear,240,2013-11-24 18:15:00
12:35 PM,22.5,3.7,45,30.58,10.0,SW,10.4,-,N/A,,Clear,230,2013-11-24 18:35:00
12:55 PM,23.0,3.4,43,30.57,10.0,SW,9.2,16.1,N/A,,Clear,230,2013-11-24 18:55:00
1:15 PM,23.5,2.8,41,30.56,10.0,SW,5.8,-,N/A,,Clear,230,2013-11-24 19:15:00
1:35 PM,24.1,3.4,41,30.55,10.0,WSW,10.4,-,N/A,,Clear,250,2013-11-24 19:35:00
1:55 PM,24.3,4.6,43,30.54,10.0,SW,9.2,-,N/A,,Clear,230,2013-11-24 19:55:00
2:15 PM,24.6,3.7,41,30.54,10.0,SSW,9.2,-,N/A,,Clear,210,2013-11-24 20:15:00
2:35 PM,24.6,2.7,39,30.53,10.0,SW,9.2,-,N/A,,Clear,230,2013-11-24 20:35:00
2:55 PM,24.4,4.1,42,30.53,10.0,SSW,10.4,-,N/A,,Clear,210,2013-11-24 20:55:00
3:15 PM,24.1,3.6,41,30.52,10.0,SSW,9.2,16.1,N/A,,Clear,210,2013-11-24 21:15:00
3:35 PM,24.4,3.2,40,30.51,10.0,SSW,11.5,-,N/A,,Clear,210,2013-11-24 21:35:00
3:55 PM,23.5,3.4,42,30.51,10.0,SSW,12.7,-,N/A,,Clear,210,2013-11-24 21:55:00
4:15 PM,22.8,3.9,44,30.50,10.0,SSW,12.7,17.3,N/A,,Clear,210,2013-11-24 22:15:00
4:35 PM,21.2,5.7,51,30.49,10.0,SSW,9.2,-,N/A,,Clear,200,2013-11-24 22:35:00
4:55 PM,20.3,6.3,55,30.49,10.0,SSW,9.2,-,N/A,,Clear,200,2013-11-24 22:55:00
5:15 PM,19.8,7.3,59,30.48,10.0,SSW,9.2,-,N/A,,Clear,200,2013-11-24 23:15:00
5:35 PM,19.2,7.5,60,30.48,10.0,SSW,9.2,-,N/A,,Clear,200,2013-11-24 23:35:00
5:55 PM,19.2,7.2,59,30.47,10.0,SSW,9.2,-,N/A,,Clear,200,2013-11-24 23:55:00
6:15 PM,19.0,7.2,60,30.46,10.0,SSW,8.1,-,N/A,,Clear,200,2013-11-25 00:15:00
6:35 PM,19.0,7.5,61,30.46,10.0,SSW,9.2,-,N/A,,Clear,200,2013-11-25 00:35:00
6:55 PM,19.4,7.3,60,30.46,10.0,SSW,9.2,-,N/A,,Clear,210,2013-11-25 00:55:00
7:15 PM,18.5,7.5,62,30.45,10.0,South,9.2,-,N/A,,Clear,190,2013-11-25 01:15:00
7:35 PM,18.1,8.4,66,30.43,10.0,South,9.2,-,N/A,,Clear,190,2013-11-25 01:35:00
7:55 PM,18.1,8.6,66,30.42,10.0,South,10.4,-,N/A,,Clear,190,2013-11-25 01:55:00
8:15 PM,18.5,9.0,66,30.41,10.0,South,11.5,-,N/A,,Clear,190,2013-11-25 02:15:00
8:35 PM,18.9,9.1,66,30.41,10.0,South,11.5,-,N/A,,Clear,190,2013-11-25 02:35:00
8:55 PM,18.5,9.5,68,30.40,10.0,SSW,12.7,-,N/A,,Clear,200,2013-11-25 02:55:00
9:15 PM,18.5,9.0,66,30.40,10.0,SSW,11.5,-,N/A,,Clear,200,2013-11-25 03:15:00
9:35 PM,18.5,9.0,66,30.39,10.0,SSW,11.5,-,N/A,,Clear,200,2013-11-25 03:35:00
9:55 PM,18.5,9.0,66,30.39,10.0,SSW,10.4,-,N/A,,Clear,200,2013-11-25 03:55:00
10:15 PM,18.3,9.3,68,30.38,10.0,SSW,13.8,-,N/A,,Clear,200,2013-11-25 04:15:00
10:35 PM,18.1,9.1,68,30.38,10.0,SSW,12.7,-,N/A,,Clear,200,2013-11-25 04:35:00
10:55 PM,18.5,9.5,68,30.37,10.0,SSW,13.8,-,N/A,,Clear,200,2013-11-25 04:55:00
11:15 PM,18.5,9.7,68,30.37,10.0,SSW,12.7,18.4,N/A,,Clear,200,2013-11-25 05:15:00
11:35 PM,18.5,10.0,70,30.36,10.0,SSW,15.0,20.7,N/A,,Clear,200,2013-11-25 05:35:00
11:55 PM,18.5,10.2,70,30.35,10.0,SSW,16.1,20.7,N/A,,Clear,210,2013-11-25 05:55:00